Devils Lake, ND (58301)

6:29 PM CST on February 05, 2016 (GMT -0600)
Lake Region RadioWorks | | Change Station
CLOSE
Current Station
Personal Weather Station
Location: Devils Lake, ND
Elevation: 1431 ft
Nearby Weather Stations
Active Advisory: Blizzard Watch

Elev 1431 ft 48.11 °N, 98.87 °W | Updated 3 minutes ago

Clear
Clear
24.1 °F
Feels Like 24 °F
N
1.0
Wind Variable Wind from WNW
Gusts 2.0 mph

Today
High -- | Low -- °F
--% Chance of Precip.
Yesterday
High -- | Low -- °F
Precip. -- in
Pressure 30.22 in
Visibility 10.0 miles
Clouds Clear
Windchill 24 °F
Dew Point 20 °F
Humidity 84%
Rainfall 0.00 in
Snow Depth Not available.
7:58 AM 5:41 PM
Waning Crescent, 8% visible
METAR KDVL 052356Z AUTO 20005KT 10SM CLR M05/M07 A3009 RMK AO2 SLP231 T10501072 11033 21061 56010 FZRANO
Pressure 30.22 in
Visibility 10.0 miles
Clouds Clear
Windchill 24 °F
Dew Point 20 °F
Humidity 84%
Rainfall 0.00 in
Snow Depth Not available.
7:58 AM 5:41 PM
Waning Crescent, 8% visible
METAR KDVL 052356Z AUTO 20005KT 10SM CLR M05/M07 A3009 RMK AO2 SLP231 T10501072 11033 21061 56010 FZRANO

10-Day Weather Forecast

Almanac

Astronomy

Feb. 05, 2016 Rise Set
Actual Time
Civil Twilight
Nautical Twilight
Astronomical Twilight
Moon
Length of Visible Light
Length of Day
Tomorrow will be .
, % of the Moon is Illuminated

Today's Extremes

State Highs State Lows

Community

WunderPhotos

Upload Photos

1,890,897 photos uploaded!

WunderBlog® & News

Nearby

Air Quality

  Air Quality AQ Index Pollutant
Not available.

Snow Depth

Station Depth Elevation

Earthquake Activity

City Distance Mag. Time & Date
Minimum magnitude displayed is 2.5.

Coastal Water Temperatures

Place Temperature

Stations

Nearby Weather Stations

Station Location Temp. Windchill Dew Point Humidity Wind Precip. Elev Updated Type
                   

Watches & Warnings

Blizzard Watch
Issued: 3:13 PM CST Feb. 5, 2016 – National Weather Service

... Blizzard watch in effect from late Saturday night through late
Sunday night...

The National Weather Service in Grand Forks has issued a blizzard
watch... which is in effect from late Saturday night through late
Sunday night.

* Timing... blizzard conditions are possible from late Saturday
night through late Sunday night.

* Winds / visibilities... winds gusting as high as 60 mph could
cause whiteout conditions in blowing snow. Significant drifting
of the snow is likely... especially in open areas.

* Snow accumulations... total snow accumulations of 2 to 4 inches
are possible.

* Impacts... travel could be very difficult to impossible late
Saturday night through Sunday night.

Precautionary/preparedness actions...

A blizzard watch means there is a potential for falling and/or
blowing snow with strong winds and extremely poor visibilities.
This can lead to whiteout conditions and make travel very
dangerous.